Temperature
15 15 15 15 14 14 14 14 14 14 14 14 14 14 14 14 14 14 14 14 14 14 14 14 14 14 13 13 13 13 13 13 13 12 12 11 11 11 11 11 11 10 11
15 15 15 14 14 14 14 14 14 14 14 14 14 14 14 14 14 14 14 14 13 13 13 13 13 13 13 13 13 13 13 12 12 12 12 11 11 11 11 11 10 10 10
15 14 14 14 14 14 14 14 14 14 14 14 13 14 14 13 13 13 13 13 13 13 13 13 13 13 13 13 13 13 13 12 12 12 12 11 11 11 11 11 10 10 10
15 14 14 14 14 14 14 14 14 14 13 13 13 13 13 13 13 13 13 13 13 13 13 13 13 13 13 13 13 13 12 12 12 12 11 11 11 11 10 10 10 10 10
14 14 14 14 14 14 14 14 14 14 13 13 13 13 13 13 13 13 13 13 13 13 13 13 13 13 13 13 12 12 12 12 12 11 11 11 11 11 10 10 10 10 10
14 14 14 14 14 14 14 14 14 14 13 13 13 13 13 13 13 13 13 13 13 13 13 13 13 13 13 13 13 12 12 12 11 11 11 11 10 10 10 10 10 9 9
14 14 14 14 14 14 13 14 14 14 13 13 13 13 13 13 13 13 13 12 12 12 12 12 12 12 12 12 12 12 12 12 11 11 11 10 10 10 10 10 10 9 9
14 14 14 14 14 13 13 13 13 13 13 13 13 13 13 13 13 13 13 12 12 12 12 12 12 12 12 12 11 11 11 11 11 11 11 10 10 10 10 10 10 9 9
14 14 14 14 13 13 13 13 13 13 13 13 13 13 13 13 13 13 13 12 12 12 12 12 12 12 12 12 11 11 11 11 11 11 11 10 10 10 10 10 9 9 9
14 14 14 13 13 13 13 13 13 13 13 13 13 13 12 12 12 12 12 12 12 12 12 12 12 12 12 11 11 11 10 10 10 10 10 10 10 10 10 9 9 9 9
14 14 13 13 13 13 13 13 13 13 13 13 13 12 12 12 12 12 12 12 12 11 11 11 11 11 11 11 11 11 10 10 10 10 10 9 9 9 9 9 9 8 8
13 13 13 13 13 13 13 13 13 12 13 12 12 12 12 12 12 12 12 12 12 11 11 11 11 11 11 11 11 11 10 10 10 10 9 9 9 9 9 9 9 8 8
13 13 13 13 12 12 12 12 12 12 12 12 12 12 12 12 12 12 12 12 11 11 11 11 11 11 11 11 10 10 10 10 9 9 9 9 9 9 9 9 8 8 8
12 12 12 12 12 12 12 12 12 12 12 12 12 12 12 11 11 11 11 11 11 11 11 11 10 10 10 10 10 10 10 9 9 9 9 9 9 8 8 8 8 8 7
12 12 12 12 12 12 12 12 12 12 12 12 12 11 11 11 12 12 11 11 11 10 10 10 10 10 10 9 10 9 9 9 9 9 8 8 8 8 8 8 7 7 7
12 12 12 12 11 11 11 11 12 12 12 12 12 11 11 11 11 11 11 11 11 10 10 9 10 9 9 9 9 9 9 9 8 8 8 8 8 7 7 7 7 7 6
11 11 11 11 11 11 11 11 11 11 11 11 11 11 11 11 11 11 11 10 10 10 9 9 9 9 9 9 9 9 9 8 8 8 8 8 7 7 7 7 6 6 6
11 11 11 11 11 11 11 11 11 11 10 11 11 11 11 11 10 10 10 10 9 9 9 9 9 9 9 8 8 8 8 8 8 8 7 7 7 7 6 6 6 6 6
11 10 10 10 10 10 10 10 10 10 10 10 10 10 10 10 10 10 9 9 9 9 9 8 8 8 8 8 8 8 8 7 7 7 7 7 7 6 6 6 6 5 5
10 10 10 10 10 10 10 10 10 10 9 9 9 10 10 9 9 9 9 9 8 8 8 8 8 8 8 7 7 7 7 7 7 7 6 6 6 6 6 5 5 5 5
10 10 10 10 9 9 9 9 9 9 9 9 9 9 9 9 9 9 9 9 8 8 8 8 8 7 7 7 7 7 7 7 6 6 6 6 6 5 5 5 5 5 4
9 9 9 9 9 9 9 9 9 9 8 8 8 8 8 8 8 8 8 8 8 8 8 7 7 7 7 7 7 6 6 6 6 6 6 5 5 5 5 4 4 4 4
9 9 9 9 8 8 8 8 8 8 8 8 8 8 8 8 8 8 8 8 8 8 7 7 7 7 6 6 6 6 6 6 6 5 5 5 5 4 4 4 4 4 3
9 8 8 8 8 8 8 8 8 8 8 7 7 7 7 7 7 7 7 7 7 7 7 7 6 6 6 6 6 6 5 5 5 5 5 4 4 4 4 4 3 3 3
8 8 8 8 7 7 7 7 7 7 7 7 7 7 7 7 6 6 7 7 6 6 6 6 6 6 6 5 5 5 5 5 5 5 4 4 4 4 3 3 3 3 3
8 8 7 7 7 7 6 6 6 6 6 6 6 6 6 6 6 6 6 6 6 6 6 5 5 5 5 5 5 5 5 4 4 4 4 4 3 3 3 3 3 2 2
Wind_Speed
4 4 4 4 3 3 3 3 3 3 3 2 2 2 2 2 2 2 2 2 2 2 2 2 2 2 2 2 2 2 2 2 2 2 1 2 2 2 2 2 2 2 3
5 4 4 4 4 4 4 4 4 3 3 3 3 2 2 2 2 2 2 2 2 2 2 2 1 1 2 2 2 2 2 3 3 3 2 2 2 2 2 2 2 1 2
5 5 5 5 5 5 5 4 4 4 4 4 3 3 2 2 2 2 3 2 2 2 2 2 1 2 2 2 3 3 2 2 2 3 3 2 2 3 3 2 3 2 2
5 5 5 5 5 5 5 5 5 5 5 4 4 3 3 3 3 3 3 2 2 2 2 2 2 2 2 2 3 3 3 3 3 3 3 3 3 3 3 3 2 3 2
4 5 4 5 4 4 5 5 5 5 5 5 4 4 4 3 3 3 3 3 2 2 2 1 1 1 3 2 2 3 3 3 4 4 4 4 4 4 4 3 3 3 3
4 4 3 3 3 4 4 4 4 4 5 5 5 5 4 3 2 2 3 4 4 3 2 2 1 1 1 1 1 2 3 4 5 5 4 5 5 4 4 4 4 4 3
4 4 3 3 3 4 4 4 4 5 5 5 5 5 5 4 4 4 4 5 4 4 3 3 2 1 2 2 2 3 2 3 5 5 5 5 5 4 5 5 5 5 4
4 3 3 4 4 4 4 4 4 4 4 4 5 5 4 3 5 5 5 6 4 4 4 3 3 3 2 2 2 2 2 2 3 4 5 5 4 4 5 5 5 5 4
4 4 4 4 4 4 5 5 4 4 4 5 5 5 5 5 5 5 5 4 4 4 4 4 3 3 2 3 3 3 3 2 1 2 3 2 2 3 4 4 4 4 4
5 5 4 4 4 5 5 5 4 4 5 4 4 5 5 5 5 5 6 4 5 4 3 3 3 3 3 4 5 4 4 3 3 3 3 4 4 4 6 6 5 5 4
5 5 4 4 4 4 4 4 4 4 4 4 4 4 5 5 5 6 6 5 5 4 3 3 3 4 4 4 5 5 4 4 3 3 3 3 3 3 4 5 5 5 6
5 5 5 5 4 3 4 4 4 4 4 4 4 4 4 4 4 5 7 6 5 5 4 3 3 4 4 4 4 3 3 4 3 3 3 3 3 4 4 4 5 6 6
5 5 5 5 4 4 4 4 4 4 4 4 4 4 4 4 4 6 7 7 6 4 3 2 3 4 4 4 4 4 4 4 4 4 4 4 4 4 3 3 4 4 5
5 5 5 5 4 4 3 4 4 4 4 5 5 5 5 4 4 4 4 5 5 4 3 3 5 5 4 3 3 4 4 4 4 5 4 4 3 3 4 3 4 4 4
5 5 5 5 4 4 4 4 5 4 5 5 5 5 5 6 5 4 4 4 4 4 4 3 3 3 3 4 4 4 4 4 4 4 4 4 4 4 4 4 4 4 4
5 5 4 4 4 4 4 4 3 4 3 5 5 5 5 4 3 5 5 4 4 5 5 5 5 5 5 5 5 5 4 4 4 4 4 5 5 5 4 4 4 5 5
5 4 4 4 4 4 4 4 4 3 4 5 5 6 5 4 4 5 6 5 6 7 6 6 6 6 6 5 5 5 5 5 4 5 5 5 5 5 4 4 4 5 5
5 4 4 4 4 4 5 5 5 4 4 4 5 6 6 6 6 6 7 5 5 6 6 6 6 6 5 5 5 5 5 5 5 5 5 5 5 5 5 5 5 5 5
5 4 4 4 4 4 4 4 5 5 5 5 4 4 5 5 6 6 8 6 6 6 7 7 6 6 6 6 5 5 5 5 5 5 5 5 5 5 5 5 5 5 5
5 4 4 4 4 5 4 5 5 5 5 5 5 4 2 3 4 5 6 6 7 7 7 7 7 6 6 6 5 5 5 5 6 5 5 5 5 5 6 6 6 6 6
5 5 5 5 5 5 5 5 6 6 6 6 6 4 4 5 5 5 5 6 6 7 7 7 6 6 6 6 5 6 6 6 6 6 5 5 6 5 6 6 6 6 6
5 5 5 6 6 6 6 6 6 6 7 7 6 4 5 6 5 5 5 6 6 6 6 6 6 6 5 6 6 6 6 6 6 6 6 6 6 6 6 6 6 6 6
5 5 6 6 6 5 6 6 6 6 6 6 6 5 5 6 6 6 6 6 5 5 5 5 6 6 6 6 7 6 6 6 6 6 6 6 6 7 7 7 8 8 7
5 6 6 6 6 6 6 6 6 6 6 6 6 6 6 6 6 6 6 5 5 5 5 5 6 7 8 6 6 7 7 6 6 7 8 7 7 7 7 7 8 9 8
5 5 6 6 6 6 6 7 7 6 6 6 6 6 6 6 6 6 5 5 6 5 6 6 5 6 8 8 7 7 7 7 7 7 7 7 8 8 8 8 8 8 8
5 6 6 6 6 6 6 6 6 6 6 6 6 6 6 6 6 6 5 5 5 5 5 5 6 7 7 7 8 8 8 9 9 9 8 7 8 8 8 8 9 9 9
Wind_Direction
214 213 212 217 220 215 213 215 220 215 211 217 219 223 206 204 203 199 219 213 212 205 200 208 221 225 215 215 218 221 230 234 211 199 179 172 180 182 148 155 142 129 105
217 217 221 220 218 216 213 213 217 216 219 223 217 223 224 229 231 216 211 218 222 221 223 222 216 200 217 216 208 215 214 224 213 197 191 191 200 200 191 192 185 167 135
219 223 227 225 223 222 222 216 218 221 218 217 217 220 221 226 229 232 221 217 218 220 225 235 234 225 221 204 207 211 208 205 205 205 199 195 209 204 200 206 209 209 204
219 225 232 232 226 225 224 222 220 221 222 221 221 222 224 232 233 229 223 218 217 218 219 230 250 253 254 235 222 216 206 199 195 201 201 199 204 209 212 214 217 210 224
219 227 232 234 229 226 221 222 220 221 225 222 219 223 224 234 236 234 226 221 222 223 219 226 250 346 351 306 261 226 209 208 206 205 205 207 210 209 217 219 224 232 233
220 227 233 233 228 226 223 223 221 221 224 221 222 223 222 226 185 230 247 228 229 228 225 225 203 180 144 182 289 280 251 227 220 215 219 220 226 224 221 223 225 238 243
212 215 214 219 219 229 223 221 220 217 215 218 223 225 225 208 173 196 234 243 238 234 230 228 226 212 194 207 183 189 217 250 254 241 233 236 237 228 221 226 231 239 249
212 215 215 220 218 218 221 224 227 222 215 219 224 225 225 206 178 194 218 232 235 233 232 230 224 220 216 229 219 224 234 226 233 239 242 249 251 244 229 234 239 238 246
218 224 220 225 227 224 222 224 226 226 223 222 222 222 218 208 183 191 215 226 231 228 228 231 234 231 189 214 223 229 235 237 222 236 271 284 306 273 243 226 221 224 238
226 230 226 226 229 231 229 231 227 221 223 222 222 227 225 221 184 191 217 223 228 228 223 223 225 237 199 212 225 228 233 240 235 210 214 223 229 223 219 222 223 229 242
229 229 227 228 232 237 235 233 225 217 214 218 222 227 227 223 192 193 214 225 227 225 225 227 216 192 213 224 243 240 240 247 238 241 235 231 230 229 220 222 228 236 242
228 230 233 233 231 236 230 233 230 216 214 219 224 226 228 219 207 198 204 224 245 227 230 232 211 182 204 220 233 235 229 238 237 235 236 236 235 235 238 233 232 236 246
224 229 234 232 228 232 227 229 228 223 225 228 227 230 229 222 206 197 202 210 227 230 229 225 201 184 196 210 218 223 221 230 233 235 240 242 242 240 235 235 239 240 248
228 231 233 231 232 234 235 231 228 229 231 232 233 233 234 228 224 212 213 211 206 220 226 193 184 192 209 218 214 216 232 238 238 240 244 249 248 235 231 233 234 237 244
233 234 234 232 234 238 238 238 234 234 235 234 234 233 232 234 230 216 214 215 215 214 211 209 209 207 217 223 227 230 234 234 236 245 246 246 245 241 239 235 239 239 245
235 237 237 235 234 237 240 247 243 241 231 238 251 253 247 249 215 200 212 208 190 183 198 216 220 221 225 229 231 232 233 236 238 241 243 243 241 242 241 235 232 237 246
237 238 239 242 242 242 243 243 251 250 230 229 234 244 248 236 211 199 200 199 195 191 214 226 228 228 230 233 236 236 238 238 237 237 241 245 244 241 240 241 236 238 246
238 236 239 241 246 249 248 245 244 247 252 257 239 224 223 224 219 205 192 189 206 211 229 233 233 233 233 234 236 239 241 238 235 238 238 242 245 241 239 239 240 244 249
236 240 241 245 248 251 251 246 245 248 252 257 259 236 214 216 213 201 192 216 223 226 230 235 235 233 232 233 235 235 236 237 238 237 238 238 245 245 241 241 243 243 248
234 232 241 245 246 249 247 244 244 246 249 252 252 252 231 217 224 215 218 230 231 232 232 234 235 233 230 229 230 231 235 237 238 238 240 241 242 247 246 245 246 245 247
239 231 227 242 244 247 246 246 247 247 249 251 252 245 223 228 233 228 225 229 232 234 233 233 233 232 232 232 231 231 234 238 239 239 241 242 242 247 251 247 245 246 248
236 237 237 243 246 244 247 249 251 251 252 253 257 244 212 234 241 238 234 234 234 236 235 233 231 229 227 227 229 232 237 239 239 239 241 246 246 246 248 246 245 246 246
238 242 243 245 247 246 248 252 254 256 255 253 252 248 236 241 246 247 243 240 237 235 232 230 233 231 227 228 229 231 234 236 238 240 244 245 246 247 248 246 243 246 246
236 240 245 246 247 248 249 252 253 254 255 255 252 249 245 244 246 249 249 243 238 235 233 231 233 234 233 234 232 231 235 239 241 238 241 244 244 247 249 249 246 244 242
237 242 246 248 249 251 252 254 255 255 255 254 254 254 254 253 251 250 250 245 241 241 241 238 235 235 236 235 237 236 231 231 238 244 241 241 243 243 243 248 247 247 244
244 248 251 252 253 254 254 254 257 260 260 260 260 261 260 259 258 257 253 250 247 243 242 240 242 246 248 243 242 241 236 232 232 238 242 242 242 242 242 244 245 243 245
Height
1552 1553 1553 1553 1553 1553 1553 1554 1554 1554 1554 1554 1554 1555 1555 1554 1554 1554 1554 1554 1555 1555 1555 1554 1554 1553 1553 1553 1553 1554 1554 1555 1555 1554 1554 1554 1553 1553 1552 1552 1551 1550 1549
1550 1550 1550 1550 1550 1551 1551 1552 1552 1553 1553 1553 1553 1553 1553 1553 1553 1553 1553 1553 1553 1553 1553 1553 1552 1552 1551 1551 1551 1552 1552 1552 1553 1552 1552 1552 1552 1551 1551 1550 1550 1549 1548
1548 1548 1548 1548 1548 1548 1549 1549 1550 1550 1551 1551 1551 1551 1551 1551 1551 1551 1551 1551 1551 1551 1551 1551 1551 1550 1549 1549 1549 1550 1550 1550 1550 1550 1550 1550 1549 1549 1549 1549 1548 1547 1547
1545 1545 1545 1545 1545 1546 1546 1547 1547 1548 1548 1548 1549 1549 1549 1549 1549 1549 1549 1549 1549 1549 1549 1549 1549 1548 1548 1547 1547 1547 1548 1548 1548 1548 1548 1547 1547 1547 1547 1547 1546 1546 1545
1543 1543 1543 1543 1543 1543 1543 1544 1544 1545 1545 1546 1546 1546 1546 1547 1547 1547 1547 1547 1548 1547 1547 1547 1546 1546 1545 1545 1545 1545 1545 1545 1545 1545 1545 1545 1545 1544 1544 1544 1544 1544 1543
1540 1540 1540 1540 1540 1540 1541 1541 1541 1542 1542 1543 1543 1543 1543 1544 1544 1544 1545 1545 1545 1545 1545 1545 1544 1543 1543 1543 1542 1542 1543 1543 1543 1542 1542 1542 1542 1542 1541 1541 1541 1541 1541
1538 1538 1538 1538 1538 1538 1538 1538 1538 1539 1539 1540 1540 1541 1541 1541 1541 1542 1542 1542 1543 1542 1542 1542 1542 1541 1540 1540 1540 1539 1539 1539 1539 1540 1539 1539 1539 1539 1539 1538 1538 1538 1538
1535 1535 1535 1535 1535 1535 1535 1535 1536 1536 1536 1537 1537 1538 1538 1538 1538 1539 1539 1539 1540 1539 1539 1539 1539 1538 1538 1537 1537 1536 1536 1536 1536 1535 1536 1536 1536 1535 1535 1535 1535 1534 1534
1532 1532 1532 1532 1532 1532 1532 1532 1532 1533 1533 1534 1534 1534 1534 1535 1535 1535 1536 1536 1536 1536 1536 1536 1535 1535 1535 1534 1534 1534 1533 1533 1532 1532 1532 1532 1531 1531 1531 1531 1531 1531 1530
1529 1529 1529 1529 1529 1529 1529 1529 1529 1530 1530 1530 1531 1531 1531 1531 1532 1532 1533 1533 1533 1533 1532 1532 1532 1532 1531 1531 1531 1530 1530 1530 1529 1529 1528 1528 1527 1527 1527 1527 1527 1527 1526
1526 1526 1526 1526 1526 1526 1526 1526 1526 1526 1527 1527 1527 1527 1527 1528 1528 1528 1529 1529 1529 1529 1529 1529 1529 1528 1528 1528 1528 1527 1527 1527 1526 1526 1525 1524 1524 1523 1523 1523 1522 1522 1522
1522 1522 1523 1523 1523 1523 1522 1522 1523 1523 1523 1523 1523 1523 1523 1524 1524 1524 1525 1525 1526 1526 1525 1525 1525 1525 1525 1524 1524 1524 1524 1523 1523 1522 1522 1521 1520 1520 1519 1518 1518 1517 1517
1518 1519 1519 1519 1519 1519 1519 1519 1519 1519 1519 1519 1519 1519 1519 1519 1519 1520 1521 1521 1522 1522 1522 1522 1521 1521 1521 1521 1520 1520 1520 1520 1519 1518 1518 1517 1516 1516 1515 1514 1513 1513 1512
1515 1515 1515 1516 1516 1516 1516 1516 1515 1515 1516 1516 1516 1515 1515 1515 1515 1515 1516 1516 1517 1517 1517 1517 1517 1517 1517 1516 1516 1516 1516 1515 1515 1515 1514 1514 1513 1512 1511 1510 1509 1508 1508
1511 1512 1512 1512 1512 1512 1512 1512 1512 1512 1512 1512 1512 1512 1511 1511 1511 1511 1511 1512 1512 1512 1513 1513 1513 1513 1512 1512 1512 1512 1511 1511 1511 1510 1510 1509 1509 1508 1506 1506 1504 1503 1503
1507 1508 1508 1508 1508 1508 1508 1507 1507 1508 1508 1508 1508 1508 1507 1507 1507 1507 1507 1508 1508 1508 1508 1508 1508 1508 1508 1507 1507 1507 1507 1506 1506 1506 1505 1505 1504 1503 1502 1501 1500 1499 1499
1503 1503 1504 1504 1504 1504 1503 1503 1503 1503 1503 1503 1503 1503 1503 1502 1502 1502 1502 1503 1503 1503 1503 1503 1503 1503 1503 1503 1502 1502 1502 1502 1502 1501 1501 1500 1499 1499 1498 1497 1496 1495 1494
1499 1499 1499 1499 1499 1499 1499 1499 1499 1498 1498 1498 1498 1498 1498 1498 1497 1497 1498 1498 1497 1498 1498 1498 1498 1498 1498 1497 1497 1497 1497 1497 1497 1496 1496 1495 1495 1494 1493 1492 1492 1491 1490
1495 1495 1495 1495 1495 1495 1495 1495 1495 1494 1494 1494 1493 1493 1493 1492 1492 1492 1492 1492 1492 1492 1492 1492 1492 1492 1492 1492 1492 1492 1492 1492 1492 1491 1491 1490 1490 1489 1488 1488 1487 1486 1486
1491 1491 1491 1491 1491 1491 1491 1490 1490 1490 1489 1489 1489 1488 1488 1487 1487 1486 1486 1486 1486 1486 1486 1486 1486 1486 1486 1486 1486 1486 1486 1486 1486 1486 1486 1485 1485 1484 1483 1483 1482 1481 1481
1486 1486 1486 1486 1486 1486 1486 1486 1485 1485 1484 1484 1484 1483 1483 1482 1482 1481 1480 1480 1480 1480 1480 1480 1480 1480 1480 1480 1480 1480 1480 1480 1481 1480 1480 1480 1479 1479 1478 1478 1477 1476 1476
1482 1482 1482 1481 1481 1481 1481 1481 1480 1479 1479 1479 1478 1478 1477 1477 1476 1476 1475 1475 1475 1474 1474 1474 1474 1474 1474 1474 1474 1474 1474 1474 1474 1474 1474 1474 1474 1473 1473 1472 1471 1471 1470
1477 1477 1477 1476 1476 1476 1475 1475 1475 1474 1473 1473 1473 1472 1471 1471 1470 1470 1469 1469 1469 1468 1468 1468 1468 1467 1468 1468 1468 1468 1467 1467 1467 1467 1467 1467 1467 1467 1466 1466 1465 1465 1464
1472 1472 1472 1471 1471 1470 1470 1469 1469 1468 1468 1467 1467 1466 1466 1465 1464 1464 1463 1463 1463 1462 1462 1461 1461 1461 1461 1461 1461 1461 1460 1460 1460 1460 1460 1460 1460 1460 1459 1459 1459 1458 1458
1467 1467 1466 1466 1465 1465 1464 1463 1463 1462 1462 1461 1461 1460 1460 1459 1458 1458 1457 1457 1456 1456 1455 1455 1455 1454 1454 1454 1453 1453 1453 1453 1453 1453 1453 1453 1452 1452 1452 1452 1452 1452 1451
1462 1462 1461 1460 1459 1459 1458 1457 1456 1456 1456 1455 1455 1454 1454 1453 1453 1452 1451 1450 1450 1449 1449 1448 1448 1448 1447 1447 1446 1446 1446 1446 1446 1445 1445 1445 1444 1444 1444 1444 1444 1444 1444